Flag for Switzerland Weather past 2 weeks in Buchs, St. Gallen, Switzerland

Now
59 °F

Cool.


Feels Like: 58 °F
Forecast: 38 / 48 °F
Wind: 7 mph from Southeast

Location: Vaduz

Current Time: Oct 21, 2014 at 4:51:54 AM

Latest Report: Oct 21, 2014 at 4:00 AM


Visibility: N/A

Pressure: 30.06 "Hg

Humidity: 84%

Dew point: 54 °F

Location of BuchsLocation

Historic Weather in Buchs — Graph

°F

Buchs temperature yesterday

Maximum temperature yesterday: 68 °F (at 4:00 PM)
Minimum temperature yesterday: 58 °F (at 10:00 PM)
Average temperature yesterday: 63 °F

Past Weeks' High & Low Weather Summary

 TemperatureHumidityPressure
High80 °F (Oct 9, 3:00 PM)97% (Oct 12, 7:00 AM)30.25 "Hg (Oct 12, 7:00 AM)
Low47 °F (Oct 12, 7:00 AM)26% (Oct 9, 12:00 PM)29.75 "Hg (Oct 12, 4:00 PM)
Average62 °F67%29.94 "Hg
* Reported Oct 6 3:00 AM — Oct 21 3:00 AM, Buchs, Weather by CustomWeather, © 2014

Note: Actual official high and low records may vary slightly from our data, if they occured in-between our weather recording intervals... More about our weather records

Advertising

Buchs weather history for previous 24 hours

 ConditionsComfort  
Time TempWeatherWind HumidityBarometerVisibility
3:00 AM
Oct 21
59 °FCool.9 mph85%30.02 "HgN/A
2:00 AM62 °FFog.12 mph68%30.03 "Hg6 mi
1:00 AM58 °FCool.3 mph94%30.08 "HgN/A
12:00 AM59 °FCool.6 mph87%30.05 "HgN/A
11:00 PM
Oct 20
58 °FFog.2 mph82%30.05 "Hg6 mi
10:00 PM58 °FCool.1 mph81%30.05 "HgN/A
9:00 PM60 °FCool.2 mph77%30.05 "HgN/A
8:00 PM60 °FFog.1 mph79%30.06 "Hg6 mi
7:00 PM64 °FMild.5 mph63%30.03 "HgN/A
6:00 PM64 °FMild.6 mph64%30.04 "HgN/A
5:00 PM67 °FPartly sunny.1 mph56%30.05 "Hg9 mi
4:00 PM68 °FMild.No wind46%30.06 "HgN/A
3:00 PM67 °FMild.3 mph54%30.08 "HgN/A
2:00 PM65 °FPassing clouds.3 mph53%30.11 "Hg9 mi
1:00 PM65 °FMild.3 mph51%30.13 "HgN/A
12:00 PM65 °FMild.3 mph49%30.15 "HgN/A
11:00 AM64 °FScattered clouds.6 mph50%30.16 "Hg9 mi
10:00 AM61 °FRefreshingly cool.6 mph53%30.17 "HgN/A
9:00 AM60 °FRefreshingly cool.6 mph54%30.18 "HgN/A
8:00 AM59 °FPartly sunny.7 mph56%30.18 "Hg6 mi
7:00 AM61 °FRefreshingly cool.5 mph51%30.19 "HgN/A
5:00 AM61 °FRefreshingly cool.6 mph54%30.20 "HgN/A
4:00 AM61 °FRefreshingly cool.7 mph55%30.22 "HgN/A
Weather by CustomWeather, © 2014

See weather overviewHow to use our weather pages